[[{"header":{"parameterUnit":"m.s-1","parameterCategory":1,"la1":30.2991,"la2":30.254,"lo1":-89.0895,"lo2":-89.0444,"dx":0.0017,"dy":0.0017,"nx":28,"ny":28,"refTime":"2022-12-13T09:00:00:Z","depth":0,"parameterNumber":2,"parameterNumberName":"U-component_of_WINDS"},"data":[0,0,0,0,0,0,0,0,0,0,0,0,0,0,0,0,0,0,0,0,0,0,0,0,0,0,0,0,0,0,0,0,0,0,0,0,0,0,0,0,0,0,0,0,0,0,0,0,0,0,0,0,0,0,0,0,0,0,-0.4142,-0.4143,0,-0.4249,-0.425,-0.4251,-0.4326,-0.4327,-0.4327,-0.4328,-0.4438,-0.444,-0.4442,0,0,0,0,0,0,0,0,0,0,0,0,0,-0.4002,-0.4004,-0.4142,-0.4143,-0.4144,-0.4249,-0.425,-0.4252,-0.4326,-0.4327,-0.4327,-0.4328,-0.4437,-0.444,-0.4443,0,0,0,0,0,0,0,0,0,0,0,0,0,-0.4081,-0.4004,-0.4141,-0.4194,-0.42,-0.4248,-0.425,-0.4252,-0.4326,-0.4327,-0.4327,-0.4328,-0.4436,-0.444,-0.4443,-0.4448,0,0,-0.4454,-0.4456,0,0,0,0,0,0,0,0,-0.4076,-0.4086,-0.4185,-0.419,-0.4197,-0.4275,-0.4241,-0.4318,-0.4326,-0.4278,-0.4328,-0.4329,-0.4383,-0.4391,-0.4409,-0.4454,-0.4458,-0.4454,-0.4457,-0.4458,-0.4459,0,0,0,0,0,0,0,-0.4071,-0.4082,-0.4184,-0.4186,-0.4194,-0.4212,-0.4224,-0.4256,-0.4324,-0.4282,-0.4288,-0.4299,-0.4386,-0.4406,-0.4412,-0.446,-0.4454,-0.4458,-0.446,-0.4461,-0.4514,-0.4514,0,0,0,0,0,0,-0.4057,-0.4077,-0.4181,-0.4187,-0.4137,-0.4214,-0.4228,-0.4249,-0.4324,-0.4336,-0.4299,-0.4302,-0.4399,-0.4408,-0.4417,-0.4428,-0.4458,-0.4462,-0.4464,-0.4515,-0.4514,-0.4513,0,0,0,0,0,0,-0.4054,-0.4065,-0.4176,-0.4134,-0.4149,-0.4216,-0.4239,-0.4251,-0.427,-0.4337,-0.4349,-0.4306,-0.44,-0.4411,-0.444,-0.4433,-0.4463,-0.4466,-0.4516,-0.4515,-0.4514,-0.445,0,0,0,0,0,0,-0.4049,-0.4064,-0.4066,-0.4133,-0.4151,-0.4198,-0.4238,-0.4252,-0.4276,-0.4282,-0.4347,-0.4358,-0.4402,-0.4434,-0.4444,-0.4438,-0.4469,-0.4517,-0.4516,-0.4514,-0.4453,-0.4447,-0.4442,0,0,0,0,0,-0.4044,-0.4044,-0.4066,-0.4078,-0.4156,-0.4197,-0.4207,-0.4257,-0.4275,-0.4278,-0.4321,-0.4356,-0.4432,-0.4436,-0.4448,-0.4443,-0.4518,-0.4516,-0.4514,-0.4456,-0.4448,-0.4442,0,0,0,0,0,0,-0.3975,-0.4054,-0.4079,-0.4101,-0.4142,-0.421,-0.4215,-0.4248,-0.4285,-0.4289,-0.4349,-0.4363,-0.4386,-0.4418,-0.4421,-0.4453,-0.4479,-0.448,-0.4431,-0.4424,-0.4419,-0.4411,-0.4472,0,0,0,0,0,-0.3962,-0.3989,-0.4057,-0.4069,-0.4089,-0.4148,-0.4168,-0.4203,-0.4248,-0.4265,-0.4311,-0.4353,-0.4386,-0.4407,-0.4442,-0.4458,-0.4474,-0.4461,-0.4455,-0.445,-0.445,-0.4462,-0.4457,-0.4508,-0.4508,-0.4508,0,0,-0.3936,-0.3983,-0.3996,-0.4057,-0.4092,-0.4119,-0.4162,-0.4188,-0.4209,-0.427,-0.4299,-0.4334,-0.4385,-0.4408,-0.442,-0.4435,-0.4439,-0.4448,-0.4444,-0.4446,-0.4459,-0.4454,-0.445,-0.4507,-0.4507,-0.4507,0,0,-0.3903,-0.394,-0.3955,-0.399,-0.4044,-0.4083,-0.4087,-0.415,-0.4175,-0.4206,-0.4252,-0.4277,-0.4334,-0.4368,-0.4393,-0.4373,-0.4406,-0.4383,-0.4352,-0.4363,-0.4359,-0.4356,-0.4349,-0.4345,-0.4382,-0.4382,-0.4382,0,-0.3864,-0.3905,-0.3959,-0.3982,-0.4008,-0.4064,-0.4079,-0.4111,-0.4173,-0.4189,-0.4205,-0.4277,-0.4316,-0.4348,-0.4342,-0.4361,-0.4367,-0.4375,-0.4355,-0.4353,-0.435,-0.4344,-0.4341,-0.4379,-0.4379,-0.4379,-0.438,0,-0.3855,-0.3883,-0.3889,-0.3947,-0.3973,-0.3993,-0.4049,-0.4069,-0.4102,-0.414,-0.4171,-0.4219,-0.4264,-0.4274,-0.4306,-0.4311,-0.4318,-0.4344,-0.4372,-0.4341,-0.4337,-0.4335,-0.4374,-0.4375,-0.4376,-0.4377,0,0,-0.3781,-0.3868,-0.387,-0.3897,-0.396,-0.3983,-0.4005,-0.405,-0.4066,-0.4107,-0.4127,-0.4173,-0.4198,-0.4226,-0.4263,-0.4272,-0.4253,-0.4297,-0.4299,-0.4287,-0.4261,-0.4241,-0.4237,-0.4275,-0.4275,-0.4275,-0.4256,0,-0.3757,-0.38,-0.3848,-0.3874,-0.3901,-0.3955,-0.3974,-0.4015,-0.4051,-0.4079,-0.4119,-0.4151,-0.4181,-0.4198,-0.421,-0.4252,-0.4248,-0.4255,-0.4295,-0.4296,-0.4281,-0.4235,-0.4215,-0.4195,-0.4255,-0.4255,-0.4254,0,-0.3735,-0.3773,-0.3802,-0.3863,-0.3876,-0.3892,-0.3937,-0.3963,-0.4011,-0.4036,-0.4068,-0.4107,-0.4133,-0.4158,-0.4195,-0.4198,-0.4218,-0.4241,-0.4242,-0.4247,-0.4273,-0.424,-0.419,-0.4187,-0.4252,-0.4252,-0.4252,0,-0.3679,-0.3737,-0.3762,-0.3783,-0.3855,-0.3865,-0.3896,-0.3944,-0.3968,-0.4007,-0.4023,-0.4064,-0.4087,-0.4118,-0.4168,-0.4181,-0.42,-0.4228,-0.4222,-0.4221,-0.4224,-0.4223,-0.4176,-0.4236,-0.4236,-0.4236,-0.4236,0,-0.3648,-0.3663,-0.3737,-0.3752,-0.3771,-0.3827,-0.3844,-0.3879,-0.3922,-0.3945,-0.3994,-0.4014,-0.4078,-0.4107,-0.4146,-0.4171,-0.4181,-0.4202,-0.4212,-0.4198,-0.4195,-0.4212,-0.4215,-0.4235,-0.4235,-0.4235,-0.4235,0,-0.3588,-0.3638,-0.3669,-0.3734,-0.375,-0.3761,-0.3817,-0.3834,-0.3873,-0.3902,-0.3912,-0.3972,-0.4008,-0.4061,-0.4113,-0.4139,-0.4158,-0.4174,-0.4142,-0.4148,-0.4139,-0.4139,-0.4101,-0.4099,-0.4159,-0.4158,-0.4158,0,-0.3565,-0.3578,-0.3644,-0.3663,-0.3691,-0.3721,-0.3745,-0.38,-0.3824,-0.3879,-0.3889,-0.3929,-0.3963,-0.4018,-0.4067,-0.4107,-0.4125,-0.4109,-0.4132,-0.4117,-0.4125,-0.4124,-0.4126,-0.4104,-0.4103,-0.4102,-0.4101,0,-0.3518,-0.3542,-0.3575,-0.3617,-0.3644,-0.3679,-0.3717,-0.373,-0.3793,-0.3817,-0.3854,-0.3881,-0.3934,-0.3973,-0.4019,-0.4051,-0.4087,-0.4094,-0.4095,-0.408,-0.4061,-0.4072,-0.4127,-0.4095,-0.4095,-0.4096,-0.4096,-0.4097,-0.3477,-0.3491,-0.3539,-0.3574,-0.3608,-0.3642,-0.3661,-0.3702,-0.3734,-0.3781,-0.3812,-0.3848,-0.3895,-0.3962,-0.3991,-0.402,-0.4035,-0.4036,-0.4037,-0.4036,-0.4031,-0.4056,-0.4029,-0.4029,-0.403,-0.403,-0.403,0,-0.3433,-0.3467,-0.3498,-0.355,-0.3577,-0.3608,-0.3651,-0.3672,-0.3703,-0.3744,-0.3777,-0.382,-0.3858,-0.3909,-0.3951,-0.3964,-0.3982,-0.3973,-0.3973,-0.398,-0.4015,-0.401,-0.3959,-0.3959,-0.3959,-0.3959,-0.3959,-0.3959,-0.3414,-0.3439,-0.3469,-0.3512,-0.3546,-0.3581,-0.3603,-0.3635,-0.3668,-0.3713,-0.3745,-0.3778,-0.3824,-0.3869,-0.3906,-0.392,-0.3933,-0.392,-0.3939,-0.3971,-0.3978,-0.3984,-0.398,-0.3922,-0.3922,-0.3902,-0.3902,-0.3901]},{"header":{"parameterUnit":"m.s-1","parameterCategory":1,"la1":30.2991,"la2":30.254,"lo1":-89.0895,"lo2":-89.0444,"dx":0.0017,"dy":0.0017,"nx":28,"ny":28,"refTime":"2022-12-13T09:00:00:Z","depth":0,"parameterNumber":3,"parameterNumberName":"V-component_of_WINDS"},"data":[0,0,0,0,0,0,0,0,0,0,0,0,0,0,0,0,0,0,0,0,0,0,0,0,0,0,0,0,0,0,0,0,0,0,0,0,0,0,0,0,0,0,0,0,0,0,0,0,0,0,0,0,0,0,0,0,0,0,8.8046,8.8047,0,8.8201,8.8203,8.8204,8.8176,8.8173,8.817,8.8168,8.8323,8.8329,8.8336,0,0,0,0,0,0,0,0,0,0,0,0,0,8.7723,8.7729,8.8046,8.8048,8.805,8.8201,8.8203,8.8205,8.8176,8.8173,8.8169,8.8166,8.8321,8.8329,8.8337,0,0,0,0,0,0,0,0,0,0,0,0,0,8.7869,8.7731,8.8045,8.8054,8.8056,8.82,8.8203,8.8205,8.8177,8.8173,8.8169,8.8165,8.8318,8.8328,8.8338,8.8482,0,0,8.8368,8.8373,0,0,0,0,0,0,0,0,8.7861,8.7881,8.805,8.8053,8.8056,8.8165,8.8146,8.8298,8.8178,8.8131,8.8168,8.8163,8.8273,8.8287,8.8325,8.849,8.8496,8.8369,8.8375,8.838,8.8383,0,0,0,0,0,0,0,8.7851,8.7874,8.8107,8.8053,8.8056,8.8049,8.8065,8.8175,8.8223,8.8135,8.8133,8.8152,8.8274,8.8315,8.8328,8.8499,8.8369,8.8378,8.8384,8.8388,8.8793,8.8798,0,0,0,0,0,0,8.7839,8.7866,8.8102,8.8112,8.7947,8.8058,8.8076,8.8134,8.8222,8.8232,8.8155,8.815,8.83,8.8317,8.8334,8.8511,8.838,8.8389,8.8395,8.8789,8.8794,8.88,0,0,0,0,0,0,8.7832,8.786,8.8096,8.7989,8.8018,8.8068,8.8133,8.8139,8.818,8.8238,8.8246,8.8189,8.8298,8.8319,8.8447,8.8516,8.8394,8.8403,8.8783,8.879,8.8797,8.8866,0,0,0,0,0,0,8.7823,8.7858,8.7913,8.799,8.8024,8.8207,8.8137,8.8145,8.8198,8.8193,8.8271,8.828,8.8296,8.8432,8.8457,8.8528,8.8411,8.8777,8.8786,8.8795,8.8858,8.8875,8.8889,0,0,0,0,0,8.7811,8.7925,8.7916,8.7945,8.8095,8.8211,8.823,8.8247,8.8204,8.8261,8.8298,8.8278,8.8505,8.8445,8.8473,8.8548,8.8773,8.8784,8.8794,8.8851,8.8871,8.8889,0,0,0,0,0,0,8.7853,8.7935,8.7926,8.8068,8.8133,8.8206,8.8277,8.8268,8.8345,8.8337,8.8353,8.8371,8.8501,8.8537,8.8469,8.8694,8.8632,8.8649,8.8666,8.8686,8.8702,8.869,8.8419,0,0,0,0,0,8.7879,8.7967,8.8034,8.8153,8.8186,8.8227,8.8277,8.8286,8.8353,8.8379,8.8426,8.8491,8.8577,8.8633,8.8716,8.8863,8.8881,8.8928,8.8944,8.8957,8.8971,8.9054,8.9077,8.8835,8.8834,8.8834,0,0,8.7933,8.7989,8.8043,8.8163,8.8214,8.8305,8.8249,8.8347,8.8415,8.8394,8.8518,8.8554,8.8628,8.8767,8.883,8.8801,8.9042,8.897,8.898,8.8988,8.9067,8.909,8.9111,8.8842,8.884,8.8839,0,0,8.8078,8.8129,8.8235,8.8288,8.8367,8.8394,8.842,8.8495,8.8519,8.8644,8.8631,8.8712,8.8859,8.8913,8.896,8.913,8.9115,8.9156,8.9238,8.9319,8.9338,8.9355,8.9417,8.9439,8.917,8.9171,8.9171,0,8.8135,8.8273,8.829,8.8391,8.8445,8.8432,8.8541,8.8591,8.8692,8.8729,8.8695,8.8883,8.8931,8.9084,8.9126,8.9164,8.9194,8.9147,8.9334,8.9351,8.9367,8.9427,8.945,8.9175,8.9175,8.9174,8.9174,0,8.834,8.8436,8.8512,8.8613,8.8675,8.8779,8.8812,8.8873,8.8877,8.8907,8.9036,8.9094,8.919,8.9226,8.9229,8.938,8.936,8.933,8.9268,8.9395,8.9451,8.9474,8.9182,8.918,8.9179,8.9178,0,0,8.8514,8.8626,8.8654,8.8701,8.8789,8.8863,8.8967,8.9062,8.9115,8.9186,8.9274,8.9401,8.9375,8.9428,8.9437,8.9508,8.9642,8.947,8.9472,8.9501,8.9814,8.9837,8.9863,8.9633,8.9637,8.964,8.9809,0,8.8669,8.8854,8.8874,8.9039,8.9129,8.912,8.9211,8.9274,8.9306,8.9387,8.9421,8.9512,8.947,8.9502,8.9572,8.9611,8.9705,8.9599,8.9715,8.9719,8.9698,8.9893,8.9917,9.0073,8.9831,8.9834,8.9837,0,8.8873,8.8954,8.9128,8.9207,8.9245,8.9327,8.9417,8.9494,8.9567,8.9585,8.9647,8.9648,8.9755,8.969,8.9839,8.9767,8.9815,8.9842,8.9849,8.9861,8.9786,8.9911,9.0123,9.0147,8.9872,8.9869,8.9866,0,8.8985,8.9136,8.9261,8.9302,8.9396,8.9454,8.9495,8.9564,8.9621,8.97,8.9738,8.9827,8.9876,8.9946,8.9971,8.992,9.012,9.0056,9.0139,9.0139,9.0181,9.0179,9.0405,9.0211,9.0211,9.021,9.021,0,8.9157,8.9264,8.9314,8.939,8.9511,8.9534,8.9653,8.9692,8.9754,8.9839,8.9835,8.9914,8.9942,9.0026,9.0047,9.0169,9.019,9.0208,9.0213,9.021,9.0208,9.0242,9.0233,9.0217,9.0215,9.0214,9.0213,0,8.9302,8.9339,8.9475,8.9554,8.9577,8.9663,8.973,8.9805,8.9837,8.9944,8.997,9.002,9.0119,9.0152,9.027,9.0284,9.0427,9.0421,9.0403,9.0404,9.0486,9.0479,9.0743,9.078,9.0561,9.0563,9.0565,0,8.9409,8.9493,8.9582,8.964,8.9684,8.9776,8.9835,8.9862,8.9923,9.0015,9.0079,9.0177,9.0258,9.0417,9.0463,9.0554,9.0551,9.0638,9.0565,9.056,9.0555,9.055,9.056,9.0652,9.0654,9.0656,9.0657,0,8.9597,8.9612,8.9698,8.9792,8.9864,8.9938,9.001,9.0057,9.0094,9.0163,9.0266,9.0329,9.0452,9.0551,9.0645,9.0687,9.068,9.068,9.0705,9.0703,9.069,9.07,9.0442,9.0674,9.0672,9.0671,9.067,9.067,8.9728,8.9802,8.9878,8.9975,9.0033,9.0101,9.0176,9.0219,9.0305,9.0409,9.0419,9.053,9.0603,9.0729,9.0777,9.0864,9.0839,9.0874,9.0883,9.0892,9.0899,9.0676,9.0881,9.088,9.088,9.088,9.0879,0,8.9916,8.9966,9.0055,9.0157,9.0234,9.0222,9.0302,9.0367,9.0465,9.0535,9.0615,9.0734,9.0831,9.0886,9.0982,9.1042,9.1041,9.1067,9.1063,9.1073,9.0915,9.0885,9.1066,9.1066,9.1066,9.1066,9.1066,9.1066,9.0024,9.0151,9.0175,9.0331,9.0379,9.049,9.0537,9.0601,9.0657,9.0791,9.0872,9.0908,9.0972,9.1074,9.1162,9.1176,9.1212,9.1241,9.1252,9.1103,9.1084,9.1066,9.1038,9.1248,9.1248,9.1404,9.1405,9.1406]}]]